Location: Bouchavesnes-Bergen
(49.9859°N, 2.9203°E)
Time: 18:25:15
(UTC+00:00)

Cosmos 2360 Rocket - Visible Passes

Search period start: 16 June 2021 00:00
Search period end: 26 June 2021 00:00
Orbit: 835 x 844 km, 71.0° (Epoch: 15 June)

Date Brightness Start Highest point End Pass type
(mag) Time Alt. Az. Time Alt. Az. Time Alt. Az.
16 Jun 2.2 21:44:47 10° SSW 21:50:27 89° WNW 21:56:09 10° NNE visible
16 Jun 4.5 23:30:52 10° W 23:35:15 22° NW 23:39:39 10° NNE visible
17 Jun 2.2 21:29:02 10° SSW 21:34:42 87° ESE 21:40:23 10° NNE visible
17 Jun 4.5 23:14:58 10° W 23:19:27 23° NW 23:23:55 10° NNE visible
18 Jun 2.2 21:13:18 10° SSW 21:18:56 83° ESE 21:24:37 10° NNE visible
18 Jun 4.5 22:59:05 10° W 23:03:38 24° NW 23:08:12 10° NNE visible
19 Jun 2.2 20:57:33 10° SSW 21:03:11 78° ESE 21:08:51 10° NNE visible
19 Jun 4.4 22:43:12 10° W 22:47:49 25° NW 22:52:28 10° NNE visible
20 Jun 2.2 20:41:49 10° SSW 20:47:26 74° ESE 20:53:05 10° NNE visible
20 Jun 4.4 22:27:20 10° W 22:32:02 26° NW 22:36:44 10° NNE visible
21 Jun 4.4 22:11:26 10° WSW 22:16:13 27° NW 22:21:01 10° NNE visible
22 Jun 5.6 00:01:38 10° NNW 00:02:21 10° NNW 00:03:03 10° N visible
22 Jun 4.4 21:55:34 10° WSW 22:00:25 28° NW 22:05:17 10° NNE visible
22 Jun 5.6 23:45:26 10° NNW 23:46:29 10° NNW 23:47:33 10° N visible
23 Jun 4.3 21:39:42 10° WSW 21:44:37 30° NW 21:49:33 10° NNE visible
23 Jun 5.6 23:29:19 10° NNW 23:30:38 11° NNW 23:31:58 10° N visible
24 Jun 4.3 21:23:51 10° WSW 21:28:50 31° NW 21:33:49 10° NNE visible
24 Jun 5.6 23:13:15 10° NW 23:14:48 11° NNW 23:16:21 10° N visible
25 Jun 5.3 02:44:35 10° N 02:48:25 18° NE 02:52:12 10° ENE visible
25 Jun 4.3 21:07:59 10° WSW 21:13:02 32° NW 21:18:05 10° NNE visible
25 Jun 5.6 22:57:11 10° NW 22:58:57 11° NNW 23:00:43 10° N visible
